Flag for Trinidad and Tobago Weather past 2 weeks in Port of Spain, Trinidad and Tobago

Now
86 °F

Passing clouds.


Feels Like: 89 °F
Forecast: 76 / 87 °F
Wind: 14 mph from East

Location: Piarco International Airport - Trinidad

Current Time: Jan 28, 2015 at 10:20:46 AM

Latest Report: Jan 28, 2015 at 10:00 AM


Visibility: N/A

Pressure: 29.98 "Hg

Humidity: 55%

Dew point: 68 °F

Location of Port of SpainLocation

Historic Weather in Port of Spain — Graph

°F

Port of Spain temperature yesterday

Maximum temperature yesterday: 88 °F (at 12:00 PM)
Minimum temperature yesterday: 73 °F (at 2:00 AM)
Average temperature yesterday: 79 °F

Past Weeks' High & Low Weather Summary

 TemperatureHumidityPressure
High90 °F (Jan 18, 1:00 PM)100% (Jan 24, 5:00 AM)30.01 "Hg (Jan 24, 5:00 AM)
Low70 °F (Jan 24, 5:00 AM)52% (Jan 18, 1:00 PM)29.86 "Hg (Jan 14, 2:00 PM)
Average79 °F79%29.93 "Hg
* Reported Jan 13 9:00 AM — Jan 28 9:00 AM, Port of Spain, Weather by CustomWeather, © 2014

Note: Actual official high and low records may vary slightly from our data, if they occured in-between our weather recording intervals... More about our weather records

Advertising

Port of Spain weather history for previous 24 hours

 ConditionsComfort  
Time TempWeatherWind HumidityBarometerVisibility
9:00 AM
Jan 28
84 °FPassing clouds.7 mph66%29.98 "HgN/A
8:00 AM79 °FPassing clouds.No wind79%29.95 "HgN/A
7:00 AM73 °FPassing clouds.No wind89%29.92 "HgN/A
6:00 AM72 °FPassing clouds.No wind94%29.92 "HgN/A
5:00 AM72 °FPassing clouds.No wind88%29.89 "HgN/A
4:00 AM72 °FPassing clouds.No wind94%29.89 "HgN/A
3:00 AM72 °FPassing clouds.No wind94%29.89 "HgN/A
2:00 AM72 °FPassing clouds.No wind94%29.89 "HgN/A
1:00 AM73 °FPassing clouds.5 mph89%29.92 "HgN/A
12:00 AM73 °FPassing clouds.3 mph89%29.95 "HgN/A
11:00 PM
Jan 27
73 °FPassing clouds.5 mph89%29.95 "HgN/A
10:00 PM75 °FPassing clouds.6 mph83%29.98 "HgN/A
9:00 PM75 °FPassing clouds.6 mph83%29.95 "HgN/A
8:00 PM77 °FPassing clouds.9 mph79%29.95 "HgN/A
7:00 PM79 °FPassing clouds.6 mph74%29.92 "HgN/A
6:00 PM81 °FPassing clouds.6 mph70%29.92 "HgN/A
5:00 PM84 °FPassing clouds.6 mph58%29.92 "HgN/A
4:00 PM86 °FPassing clouds.12 mph52%29.89 "HgN/A
3:00 PM88 °FPassing clouds.12 mph52%29.89 "HgN/A
2:00 PM86 °FPassing clouds.12 mph52%29.92 "HgN/A
1:00 PM88 °FScattered clouds.17 mph52%29.95 "HgN/A
12:00 PM88 °FScattered clouds.12 mph52%29.98 "HgN/A
11:00 AM86 °FPartly sunny.9 mph55%30.01 "HgN/A
10:00 AM84 °FScattered clouds.12 mph62%30.01 "HgN/A
Weather by CustomWeather, © 2014

See weather overviewHow to use our weather pages